RYR3GX EPSC-EGSS

Flight info

Callsign RYR3GX
Flight time 1h 38m
Altitude 30000
Route PESEL L87 KETAP L619 PODUS DCT BATEL/N0444F390 DCT RKN/N0441F380 DCT NOGRO M40 RINIS
Aircraft B38M/M-SADE3FGIJ1LRWYZ/SB1

Departure

Time 2026-04-24 09:01
Airport Solidarity Szczecin–Goleniów Airport (EPSC)

Arrival

Time 2026-04-24 10:40
Airport London Stansted Airport (EGSS)
Time Latitude Longitude Altitude Speed Heading
2026-04-24 08:37 53.59218 14.89531 144 ft 0 kts 312°
2026-04-24 08:55 53.59218 14.89530 144 ft 1 kts 311°
2026-04-24 08:55 53.59218 14.89523 145 ft 1 kts 257°
2026-04-24 08:55 53.59199 14.89532 144 ft 6 kts 141°
2026-04-24 08:56 53.59156 14.89542 144 ft 8 kts 213°
2026-04-24 08:56 53.59111 14.89476 144 ft 10 kts 212°
2026-04-24 08:56 53.59053 14.89519 144 ft 11 kts 130°
2026-04-24 08:56 53.58997 14.89629 143 ft 14 kts 130°
2026-04-24 08:57 53.58928 14.89764 143 ft 17 kts 130°
2026-04-24 08:57 53.58848 14.89920 142 ft 18 kts 131°
2026-04-24 08:57 53.58760 14.90090 143 ft 20 kts 131°
2026-04-24 08:57 53.58666 14.90271 144 ft 21 kts 131°
2026-04-24 08:58 53.58570 14.90457 145 ft 21 kts 131°
2026-04-24 08:58 53.58505 14.90585 146 ft 22 kts 131°
2026-04-24 08:58 53.58403 14.90782 148 ft 23 kts 131°
2026-04-24 08:58 53.58296 14.90989 151 ft 23 kts 131°
2026-04-24 08:59 53.58191 14.91196 156 ft 23 kts 130°
2026-04-24 08:59 53.58086 14.91398 160 ft 23 kts 131°
2026-04-24 08:59 53.57983 14.91601 164 ft 23 kts 130°
2026-04-24 08:59 53.57900 14.91763 165 ft 11 kts 135°
2026-04-24 09:00 53.57830 14.91751 165 ft 12 kts 219°
2026-04-24 09:00 53.57768 14.91660 165 ft 8 kts 227°
2026-04-24 09:00 53.57775 14.91583 166 ft 5 kts 310°
2026-04-24 09:00 53.57776 14.91581 166 ft 1 kts 310°
2026-04-24 09:01 53.57941 14.91251 163 ft 80 kts 310°
2026-04-24 09:01 53.58486 14.90206 153 ft 153 kts 309°
2026-04-24 09:01 53.59242 14.88787 825 ft 167 kts 309°
2026-04-24 09:01 53.59974 14.87297 1934 ft 166 kts 310°
2026-04-24 09:02 53.60771 14.85698 2516 ft 191 kts 311°
2026-04-24 09:02 53.61690 14.83935 3138 ft 210 kts 312°
2026-04-24 09:02 53.62712 14.81966 3670 ft 237 kts 311°
2026-04-24 09:02 53.63692 14.79772 4729 ft 243 kts 298°
2026-04-24 09:03 53.64011 14.76844 5392 ft 268 kts 265°
2026-04-24 09:03 53.63384 14.73895 6554 ft 273 kts 244°
2026-04-24 09:03 53.62487 14.71013 7417 ft 282 kts 246°
2026-04-24 09:03 53.61600 14.68078 8487 ft 282 kts 247°
2026-04-24 09:04 53.60701 14.65114 9463 ft 286 kts 248°
2026-04-24 09:04 53.59794 14.62121 10400 ft 290 kts 248°
2026-04-24 09:04 53.58849 14.59005 10942 ft 308 kts 248°
2026-04-24 09:04 53.57851 14.55730 11538 ft 321 kts 248°
2026-04-24 09:05 53.56815 14.52327 12221 ft 330 kts 248°
2026-04-24 09:05 53.55762 14.48870 13051 ft 335 kts 248°
2026-04-24 09:05 53.54691 14.45361 13816 ft 341 kts 248°
2026-04-24 09:05 53.53599 14.41788 14515 ft 346 kts 248°
2026-04-24 09:06 53.52494 14.38179 15261 ft 348 kts 248°
2026-04-24 09:06 53.51365 14.34571 15997 ft 353 kts 243°
2026-04-24 09:06 53.49729 14.31432 16760 ft 363 kts 223°
2026-04-24 09:06 53.47727 14.28806 17451 ft 368 kts 222°
2026-04-24 09:07 53.45693 14.26168 18140 ft 371 kts 221°
2026-04-24 09:07 53.43665 14.23569 18767 ft 373 kts 221°
2026-04-24 09:07 53.39476 14.18251 19954 ft 378 kts 221°
2026-04-24 09:08 53.37392 14.15618 20479 ft 381 kts 221°
2026-04-24 09:08 53.35247 14.12910 21054 ft 384 kts 221°
2026-04-24 09:08 53.33133 14.10247 21621 ft 386 kts 220°
2026-04-24 09:08 53.30953 14.07503 22199 ft 389 kts 220°
2026-04-24 09:09 53.28781 14.04774 22786 ft 391 kts 220°
2026-04-24 09:09 53.26632 14.02077 23320 ft 394 kts 220°
2026-04-24 09:09 53.24401 13.99281 23855 ft 397 kts 220°
2026-04-24 09:09 53.22183 13.96503 24321 ft 399 kts 220°
2026-04-24 09:10 53.19987 13.93758 24778 ft 401 kts 220°
2026-04-24 09:10 53.17719 13.91010 25205 ft 406 kts 216°
2026-04-24 09:10 53.15324 13.88509 25676 ft 406 kts 221°
2026-04-24 09:10 53.13373 13.85196 26119 ft 400 kts 239°
2026-04-24 09:11 53.12138 13.81094 26504 ft 396 kts 255°
2026-04-24 09:11 53.11432 13.76669 26898 ft 397 kts 259°
2026-04-24 09:11 53.10724 13.72204 27321 ft 400 kts 258°
2026-04-24 09:11 53.10001 13.67723 27767 ft 402 kts 258°
2026-04-24 09:12 53.09270 13.63221 28190 ft 404 kts 258°
2026-04-24 09:12 53.08534 13.58702 28614 ft 406 kts 258°
2026-04-24 09:12 53.07791 13.54160 29038 ft 408 kts 258°
2026-04-24 09:12 53.07047 13.49614 29445 ft 410 kts 258°
2026-04-24 09:13 53.06293 13.45030 29842 ft 412 kts 258°
2026-04-24 09:13 53.05534 13.40422 30234 ft 414 kts 258°
2026-04-24 09:13 53.04771 13.35803 30558 ft 416 kts 258°
2026-04-24 09:13 53.04002 13.31156 30869 ft 418 kts 258°
2026-04-24 09:14 53.03228 13.26500 31217 ft 419 kts 258°
2026-04-24 09:14 53.02452 13.21838 31556 ft 420 kts 258°
2026-04-24 09:14 53.01669 13.17147 31868 ft 422 kts 258°
2026-04-24 09:14 53.00883 13.12445 32149 ft 424 kts 258°
2026-04-24 09:15 53.00091 13.07727 32406 ft 427 kts 258°
2026-04-24 09:15 52.99289 13.02962 32714 ft 429 kts 258°
2026-04-24 09:15 52.98485 12.98195 33024 ft 430 kts 258°
2026-04-24 09:15 52.97676 12.93409 33381 ft 430 kts 258°
2026-04-24 09:16 52.96868 12.88645 33819 ft 429 kts 258°
2026-04-24 09:16 52.96047 12.83893 34225 ft 429 kts 256°
2026-04-24 09:16 52.94967 12.79267 34583 ft 429 kts 253°
2026-04-24 09:16 52.93883 12.74669 34903 ft 429 kts 253°
2026-04-24 09:17 52.92817 12.70080 35261 ft 427 kts 253°
2026-04-24 09:17 52.91759 12.65491 35627 ft 425 kts 253°
2026-04-24 09:17 52.90706 12.60922 35952 ft 424 kts 253°
2026-04-24 09:17 52.89655 12.56363 36258 ft 423 kts 253°
2026-04-24 09:18 52.88604 12.51815 36566 ft 422 kts 253°
2026-04-24 09:18 52.87554 12.47280 36858 ft 422 kts 253°
2026-04-24 09:18 52.86505 12.42759 37147 ft 421 kts 253°
2026-04-24 09:18 52.85455 12.38238 37432 ft 420 kts 253°
2026-04-24 09:19 52.84409 12.33750 37699 ft 419 kts 253°
2026-04-24 09:19 52.83358 12.29246 37956 ft 419 kts 253°
2026-04-24 09:19 52.82308 12.24760 38158 ft 419 kts 253°
2026-04-24 09:19 52.81255 12.20272 38175 ft 419 kts 253°
2026-04-24 09:20 52.79270 12.11287 38150 ft 412 kts 261°
2026-04-24 09:20 52.78729 12.01973 38140 ft 409 kts 268°
2026-04-24 09:21 52.78232 11.92637 38170 ft 409 kts 268°
2026-04-24 09:21 52.77715 11.83295 38168 ft 409 kts 267°
2026-04-24 09:22 52.77189 11.73943 38170 ft 409 kts 267°
2026-04-24 09:22 52.76656 11.64607 38175 ft 409 kts 267°
2026-04-24 09:23 52.76122 11.55276 38206 ft 409 kts 266°
2026-04-24 09:23 52.75571 11.45974 38188 ft 407 kts 266°
2026-04-24 09:24 52.75020 11.36710 38170 ft 408 kts 266°
2026-04-24 09:24 52.74458 11.27397 38179 ft 408 kts 266°
2026-04-24 09:25 52.73890 11.18087 38192 ft 408 kts 266°
2026-04-24 09:25 52.73311 11.08732 38171 ft 408 kts 265°
2026-04-24 09:26 52.72761 10.99416 38192 ft 409 kts 265°
2026-04-24 09:26 52.72145 10.90150 38193 ft 409 kts 265°
2026-04-24 09:27 52.71541 10.80825 38202 ft 409 kts 265°
2026-04-24 09:27 52.70933 10.71489 38196 ft 409 kts 265°
2026-04-24 09:28 52.70319 10.62179 38208 ft 409 kts 265°
2026-04-24 09:28 52.69698 10.52865 38188 ft 408 kts 265°
2026-04-24 09:29 52.69076 10.43572 38190 ft 407 kts 264°
2026-04-24 09:29 52.68438 10.34283 38214 ft 408 kts 264°
2026-04-24 09:30 52.67797 10.25010 38213 ft 408 kts 264°
2026-04-24 09:30 52.67149 10.15734 38211 ft 408 kts 264°
2026-04-24 09:31 52.66493 10.06461 38212 ft 408 kts 264°
2026-04-24 09:31 52.65830 9.97193 38210 ft 407 kts 264°
2026-04-24 09:32 52.65163 9.87956 38212 ft 407 kts 264°
2026-04-24 09:32 52.64487 9.78708 38217 ft 407 kts 264°
2026-04-24 09:33 52.63805 9.69468 38236 ft 407 kts 263°
2026-04-24 09:33 52.63114 9.60221 38235 ft 407 kts 263°
2026-04-24 09:34 52.62417 9.50981 38226 ft 407 kts 263°
2026-04-24 09:34 52.61712 9.41744 38239 ft 408 kts 263°
2026-04-24 09:35 52.60998 9.32476 38232 ft 408 kts 263°
2026-04-24 09:35 52.60276 9.23205 38239 ft 408 kts 263°
2026-04-24 09:36 52.59547 9.13948 38240 ft 408 kts 263°
2026-04-24 09:36 52.58817 9.04765 38240 ft 408 kts 263°
2026-04-24 09:37 52.58075 8.95520 38236 ft 408 kts 262°
2026-04-24 09:37 52.57325 8.86286 38239 ft 408 kts 262°
2026-04-24 09:38 52.56569 8.77052 38241 ft 408 kts 262°
2026-04-24 09:38 52.55806 8.67818 38243 ft 408 kts 262°
2026-04-24 09:39 52.55036 8.58607 38257 ft 407 kts 262°
2026-04-24 09:39 52.54259 8.49398 38254 ft 407 kts 262°
2026-04-24 09:40 52.53482 8.40190 38268 ft 407 kts 261°
2026-04-24 09:40 52.52685 8.30989 38266 ft 407 kts 261°
2026-04-24 09:41 52.51888 8.21807 38264 ft 407 kts 261°
2026-04-24 09:41 52.51084 8.12624 38267 ft 407 kts 261°
2026-04-24 09:42 52.50273 8.03447 38267 ft 406 kts 261°
2026-04-24 09:42 52.49448 7.94262 38270 ft 407 kts 260°
2026-04-24 09:43 52.48775 7.86618 38282 ft 408 kts 261°
2026-04-24 09:43 52.47934 7.77410 38286 ft 408 kts 260°
2026-04-24 09:44 52.46953 7.66708 38283 ft 408 kts 260°
2026-04-24 09:44 52.46241 7.58998 38285 ft 408 kts 260°
2026-04-24 09:45 52.45384 7.49795 38293 ft 408 kts 260°
2026-04-24 09:45 52.44526 7.40606 38287 ft 408 kts 259°
2026-04-24 09:46 52.43657 7.31490 38297 ft 408 kts 259°
2026-04-24 09:46 52.42774 7.22244 38292 ft 408 kts 259°
2026-04-24 09:47 52.41896 7.13123 38298 ft 408 kts 259°
2026-04-24 09:47 52.41005 7.03953 38298 ft 408 kts 259°
2026-04-24 09:48 52.40109 6.94805 38306 ft 408 kts 258°
2026-04-24 09:48 52.39203 6.85634 38304 ft 408 kts 258°
2026-04-24 09:49 52.38290 6.76468 38299 ft 408 kts 258°
2026-04-24 09:49 52.37370 6.67304 38306 ft 408 kts 258°
2026-04-24 09:50 52.36445 6.58159 38309 ft 408 kts 258°
2026-04-24 09:50 52.35510 6.49001 38309 ft 408 kts 258°
2026-04-24 09:51 52.34569 6.39858 38304 ft 408 kts 257°
2026-04-24 09:51 52.33619 6.30682 38309 ft 409 kts 257°
2026-04-24 09:52 52.32663 6.21531 38307 ft 409 kts 257°
2026-04-24 09:52 52.31698 6.12365 38306 ft 409 kts 257°
2026-04-24 09:53 52.30726 6.03206 38305 ft 409 kts 257°
2026-04-24 09:53 52.29747 5.94056 38317 ft 409 kts 257°
2026-04-24 09:54 52.28763 5.84919 38303 ft 408 kts 257°
2026-04-24 09:54 52.27773 5.75806 38305 ft 408 kts 257°
2026-04-24 09:55 52.26777 5.66697 38305 ft 408 kts 257°
2026-04-24 09:55 52.25772 5.57582 38317 ft 408 kts 257°
2026-04-24 09:56 52.24762 5.48483 38319 ft 408 kts 256°
2026-04-24 09:56 52.23744 5.39384 38325 ft 408 kts 256°
2026-04-24 09:57 52.22721 5.30303 38325 ft 408 kts 256°
2026-04-24 09:57 52.21696 5.21272 38324 ft 408 kts 256°
2026-04-24 09:58 52.20657 5.12185 38328 ft 407 kts 256°
2026-04-24 09:58 52.19613 5.03110 38324 ft 407 kts 256°
2026-04-24 09:59 52.18562 4.94050 38323 ft 407 kts 256°
2026-04-24 09:59 52.17501 4.84970 38317 ft 409 kts 255°
2026-04-24 10:00 52.16432 4.75872 38321 ft 409 kts 255°
2026-04-24 10:00 52.15356 4.66785 38332 ft 409 kts 255°
2026-04-24 10:01 52.14275 4.57719 38331 ft 409 kts 255°
2026-04-24 10:01 52.13184 4.48637 38341 ft 409 kts 255°
2026-04-24 10:02 52.12086 4.39555 38340 ft 409 kts 255°
2026-04-24 10:02 52.10982 4.30484 38343 ft 409 kts 255°
2026-04-24 10:03 52.09874 4.21445 38342 ft 409 kts 255°
2026-04-24 10:03 52.08756 4.12382 38345 ft 409 kts 255°
2026-04-24 10:04 52.07631 4.03329 38359 ft 409 kts 255°
2026-04-24 10:04 52.06500 3.94278 38356 ft 408 kts 255°
2026-04-24 10:05 52.05365 3.85263 38173 ft 402 kts 255°
2026-04-24 10:05 52.04808 3.80861 37773 ft 395 kts 254°
2026-04-24 10:05 52.04256 3.76510 37294 ft 391 kts 254°
2026-04-24 10:06 52.03707 3.72199 36802 ft 388 kts 254°
2026-04-24 10:06 52.02620 3.63695 35840 ft 382 kts 253°
2026-04-24 10:06 52.02079 3.59485 35360 ft 380 kts 253°
2026-04-24 10:07 52.01539 3.55297 34884 ft 378 kts 253°
2026-04-24 10:07 52.01002 3.51136 34429 ft 376 kts 253°
2026-04-24 10:07 52.00464 3.46990 33882 ft 374 kts 253°
2026-04-24 10:07 51.99929 3.42870 33385 ft 372 kts 253°
2026-04-24 10:08 51.99396 3.38780 32929 ft 369 kts 253°
2026-04-24 10:08 51.98865 3.34720 32478 ft 367 kts 253°
2026-04-24 10:08 51.98337 3.30696 32049 ft 364 kts 253°
2026-04-24 10:08 51.97811 3.26688 31606 ft 362 kts 253°
2026-04-24 10:09 51.97293 3.22767 31177 ft 360 kts 253°
2026-04-24 10:09 51.96764 3.18766 30741 ft 358 kts 253°
2026-04-24 10:09 51.96444 3.14805 30272 ft 360 kts 261°
2026-04-24 10:09 51.96223 3.10787 29846 ft 356 kts 259°
2026-04-24 10:10 51.95974 3.06820 29459 ft 351 kts 259°
2026-04-24 10:10 51.95718 3.02908 29074 ft 348 kts 259°
2026-04-24 10:10 51.95459 2.99035 28693 ft 344 kts 259°
2026-04-24 10:10 51.95199 2.95198 28320 ft 341 kts 259°
2026-04-24 10:11 51.94939 2.91398 27968 ft 338 kts 259°
2026-04-24 10:11 51.94680 2.87632 27592 ft 335 kts 259°
2026-04-24 10:11 51.94423 2.83897 27229 ft 332 kts 259°
2026-04-24 10:11 51.94165 2.80182 26875 ft 334 kts 259°
2026-04-24 10:12 51.93902 2.76419 26519 ft 338 kts 259°
2026-04-24 10:12 51.93636 2.72610 26159 ft 341 kts 260°
2026-04-24 10:12 51.93367 2.68784 25800 ft 341 kts 260°
2026-04-24 10:12 51.93105 2.64966 25415 ft 341 kts 261°
2026-04-24 10:13 51.92845 2.61162 25044 ft 339 kts 261°
2026-04-24 10:13 51.92584 2.57374 24718 ft 337 kts 261°
2026-04-24 10:13 51.92325 2.53620 24371 ft 335 kts 261°
2026-04-24 10:13 51.92066 2.49881 24030 ft 333 kts 261°
2026-04-24 10:14 51.91806 2.46156 23626 ft 331 kts 261°
2026-04-24 10:14 51.91547 2.42465 23265 ft 329 kts 261°
2026-04-24 10:14 51.91289 2.38804 22904 ft 326 kts 261°
2026-04-24 10:14 51.91032 2.35168 22559 ft 323 kts 262°
2026-04-24 10:15 51.90836 2.31554 22379 ft 322 kts 268°
2026-04-24 10:15 51.91258 2.28074 22379 ft 312 kts 291°
2026-04-24 10:15 51.92091 2.24853 22375 ft 308 kts 284°
2026-04-24 10:15 51.92580 2.21454 22383 ft 317 kts 279°
2026-04-24 10:16 51.92970 2.17838 22338 ft 333 kts 276°
2026-04-24 10:16 51.93273 2.14091 22355 ft 338 kts 271°
2026-04-24 10:16 51.93133 2.10300 22384 ft 340 kts 263°
2026-04-24 10:16 51.93042 2.06467 22380 ft 342 kts 268°
2026-04-24 10:17 51.93084 2.02610 22380 ft 343 kts 270°
2026-04-24 10:17 51.93215 1.98775 22056 ft 341 kts 272°
2026-04-24 10:17 51.93403 1.94946 21664 ft 340 kts 273°
2026-04-24 10:17 51.93620 1.91146 21267 ft 338 kts 273°
2026-04-24 10:18 51.93851 1.87366 20902 ft 336 kts 274°
2026-04-24 10:18 51.94089 1.83591 20497 ft 336 kts 274°
2026-04-24 10:18 51.94332 1.79847 20141 ft 334 kts 274°
2026-04-24 10:18 51.94577 1.76105 19744 ft 333 kts 274°
2026-04-24 10:19 51.94819 1.72381 19397 ft 332 kts 275°
2026-04-24 10:19 51.95061 1.68671 19032 ft 331 kts 275°
2026-04-24 10:19 51.95301 1.64972 18683 ft 329 kts 274°
2026-04-24 10:19 51.95539 1.61283 18281 ft 328 kts 275°
2026-04-24 10:20 51.95773 1.57623 17894 ft 326 kts 275°
2026-04-24 10:20 51.96007 1.53970 17528 ft 324 kts 275°
2026-04-24 10:20 51.96237 1.50341 17143 ft 323 kts 275°
2026-04-24 10:20 51.96463 1.46781 16805 ft 321 kts 275°
2026-04-24 10:21 51.96687 1.43191 16434 ft 319 kts 275°
2026-04-24 10:21 51.96911 1.39620 16059 ft 319 kts 275°
2026-04-24 10:21 51.97134 1.36055 15709 ft 317 kts 275°
2026-04-24 10:21 51.97353 1.32509 15356 ft 316 kts 275°
2026-04-24 10:22 51.97572 1.28965 15014 ft 315 kts 275°
2026-04-24 10:22 51.97788 1.25445 14674 ft 313 kts 276°
2026-04-24 10:22 51.98002 1.21938 14370 ft 311 kts 276°
2026-04-24 10:22 51.98214 1.18442 14010 ft 310 kts 276°
2026-04-24 10:23 51.98424 1.14974 13652 ft 309 kts 276°
2026-04-24 10:23 51.98632 1.11523 13327 ft 306 kts 276°
2026-04-24 10:23 51.98766 1.08069 12934 ft 307 kts 272°
2026-04-24 10:23 51.98803 1.04626 12619 ft 304 kts 271°
2026-04-24 10:24 51.98827 1.01194 12272 ft 305 kts 271°
2026-04-24 10:24 51.98846 0.97755 11944 ft 306 kts 271°
2026-04-24 10:24 51.98875 0.94305 11630 ft 306 kts 271°
2026-04-24 10:24 51.98902 0.90851 11306 ft 306 kts 271°
2026-04-24 10:25 51.98930 0.87400 10986 ft 307 kts 271°
2026-04-24 10:25 51.98953 0.83936 10664 ft 307 kts 271°
2026-04-24 10:25 51.98971 0.80482 10415 ft 304 kts 271°
2026-04-24 10:25 51.98987 0.77091 10368 ft 299 kts 271°
2026-04-24 10:26 51.99001 0.73712 10369 ft 300 kts 271°
2026-04-24 10:26 51.99014 0.70326 10381 ft 300 kts 271°
2026-04-24 10:26 51.99029 0.66939 10371 ft 299 kts 271°
2026-04-24 10:26 51.99043 0.63562 10375 ft 300 kts 271°
2026-04-24 10:27 51.99060 0.60190 10371 ft 299 kts 271°
2026-04-24 10:27 51.99074 0.56824 10374 ft 299 kts 271°
2026-04-24 10:27 51.99085 0.53444 10377 ft 300 kts 271°
2026-04-24 10:27 51.99097 0.50067 10370 ft 300 kts 271°
2026-04-24 10:28 51.99106 0.46681 10375 ft 301 kts 271°
2026-04-24 10:28 51.99128 0.43285 10375 ft 302 kts 271°
2026-04-24 10:28 51.99147 0.39890 10250 ft 300 kts 271°
2026-04-24 10:28 51.99165 0.36512 9895 ft 299 kts 271°
2026-04-24 10:29 51.99183 0.33144 9583 ft 297 kts 271°
2026-04-24 10:29 51.99060 0.29811 9248 ft 296 kts 255°
2026-04-24 10:29 51.98566 0.27767 9068 ft 293 kts 239°
2026-04-24 10:29 51.97398 0.25065 8706 ft 292 kts 231°
2026-04-24 10:30 51.96153 0.22474 8392 ft 291 kts 231°
2026-04-24 10:30 51.94912 0.19894 8084 ft 290 kts 231°
2026-04-24 10:30 51.93682 0.17337 7802 ft 287 kts 231°
2026-04-24 10:30 51.92455 0.14784 7493 ft 286 kts 231°
2026-04-24 10:31 51.91247 0.12265 7381 ft 279 kts 231°
2026-04-24 10:31 51.90093 0.09853 7437 ft 265 kts 231°
2026-04-24 10:31 51.88983 0.07535 7408 ft 256 kts 231°
2026-04-24 10:31 51.87901 0.05273 7400 ft 253 kts 231°
2026-04-24 10:32 51.86831 0.03038 7245 ft 248 kts 231°
2026-04-24 10:32 51.85772 0.00821 6795 ft 250 kts 231°
2026-04-24 10:32 51.84715 -0.01398 6399 ft 248 kts 231°
2026-04-24 10:32 51.83659 -0.03587 5958 ft 246 kts 226°
2026-04-24 10:33 51.82258 -0.05054 5544 ft 237 kts 194°
2026-04-24 10:33 51.80659 -0.05436 5177 ft 234 kts 181°
2026-04-24 10:33 51.79042 -0.05606 4789 ft 231 kts 181°
2026-04-24 10:33 51.77439 -0.05773 4379 ft 230 kts 180°
2026-04-24 10:34 51.75846 -0.05926 4028 ft 227 kts 178°
2026-04-24 10:34 51.74357 -0.05342 3587 ft 221 kts 147°
2026-04-24 10:34 51.73347 -0.03589 3224 ft 215 kts 114°
2026-04-24 10:34 51.73153 -0.01271 3030 ft 213 kts 81°
2026-04-24 10:35 51.73573 0.01047 3006 ft 217 kts 70°
2026-04-24 10:35 51.74453 0.03009 3007 ft 219 kts 43°
2026-04-24 10:35 51.75633 0.04441 2987 ft 205 kts 40°
2026-04-24 10:35 51.76714 0.05882 2981 ft 200 kts 44°
2026-04-24 10:36 51.77716 0.07339 2976 ft 191 kts 45°
2026-04-24 10:36 51.78680 0.08778 2759 ft 187 kts 45°
2026-04-24 10:36 51.79622 0.10200 2552 ft 184 kts 45°
2026-04-24 10:36 51.80565 0.11605 2293 ft 183 kts 45°
2026-04-24 10:37 51.81470 0.12952 2055 ft 170 kts 45°
2026-04-24 10:37 51.82301 0.14193 1853 ft 156 kts 46°
2026-04-24 10:37 51.83074 0.15356 1649 ft 145 kts 45°
2026-04-24 10:37 51.83800 0.16442 1420 ft 140 kts 44°
2026-04-24 10:38 51.84513 0.17514 1230 ft 140 kts 44°
2026-04-24 10:38 51.85228 0.18577 1055 ft 139 kts 44°
2026-04-24 10:38 51.85932 0.19639 839 ft 138 kts 43°
2026-04-24 10:38 51.86643 0.20699 668 ft 142 kts 43°
2026-04-24 10:39 51.87366 0.21763 476 ft 138 kts 43°
2026-04-24 10:39 51.88053 0.22810 336 ft 127 kts 44°
2026-04-24 10:39 51.88613 0.23647 345 ft 90 kts 43°
2026-04-24 10:39 51.88957 0.24163 357 ft 50 kts 44°
2026-04-24 10:40 51.89106 0.24557 358 ft 33 kts 68°
2026-04-24 10:40 51.89159 0.24768 351 ft 9 kts 68°
2026-04-24 10:40 51.89164 0.24859 352 ft 4 kts 113°
2026-04-24 10:40 51.89158 0.24879 360 ft 2 kts 113°
2026-04-24 10:41 51.89158 0.24940 357 ft 10 kts 69°
2026-04-24 10:41 51.89215 0.25047 355 ft 12 kts 54°
2026-04-24 10:41 51.89239 0.25155 355 ft 10 kts 104°
2026-04-24 10:41 51.89200 0.25247 357 ft 10 kts 122°
2026-04-24 10:42 51.89167 0.25343 359 ft 9 kts 125°
2026-04-24 10:42 51.89135 0.25402 361 ft 5 kts 127°
2026-04-24 10:42 51.89141 0.25452 357 ft 5 kts 54°
2026-04-24 10:42 51.89156 0.25484 358 ft 2 kts 54°
2026-04-24 10:43 51.89159 0.25492 361 ft 0 kts 54°